This is the latest recevied weather packets stored in our database for station/object OK1ALX-6. If no packets are shown the sender has not sent any weather packets the latest 10 day(s).
| Time | Temp. | Humidity | Pressure | Rain* | Wind** | Luminosity | Snow |
|---|---|---|---|---|---|---|---|
| 1777609804 | 5.56° C | 77% | 1036.3 hPa | 0 mm | - | 36 W/m² | - |
| 1777609203 | 5° C | 78% | 1036.3 hPa | 0 mm | - | 30 W/m² | - |
| 1777608603 | 4.44° C | 80% | 1036.2 hPa | 0 mm | - | 18 W/m² | - |
| 1777608003 | 3.89° C | 82% | 1036 hPa | 0 mm | - | 12 W/m² | - |
| 1777607403 | 3.89° C | 82% | 1036 hPa | 0 mm | - | 6 W/m² | - |
| 1777606803 | 4.44° C | 82% | 1036 hPa | 0 mm | - | 2 W/m² | - |
| 1777606204 | 4.44° C | 81% | 1035.9 hPa | 0 mm | - | 0 W/m² | - |
| 1777605603 | 5° C | 82% | 1036.1 hPa | 0 mm | - | 0 W/m² | - |
| 1777605003 | 5.56° C | 82% | 1035.8 hPa | 0 mm | - | 0 W/m² | - |
| 1777604403 | 5.56° C | 81% | 1035.6 hPa | 0 mm | - | 0 W/m² | - |
| 1777603803 | 5.56° C | 81% | 1035.4 hPa | 0 mm | - | 0 W/m² | - |
| 1777603203 | 5.56° C | 81% | 1035.7 hPa | 0 mm | - | 0 W/m² | - |
| 1777602603 | 5.56° C | 80% | 1035.6 hPa | 0 mm | - | 0 W/m² | - |
| 1777602003 | 5.56° C | 77% | 1035.4 hPa | 0 mm | - | 0 W/m² | - |
| 1777601403 | 5.56° C | 79% | 1035.5 hPa | 0 mm | - | 0 W/m² | - |
| 1777600803 | 5.56° C | 79% | 1035.7 hPa | 0 mm | - | 0 W/m² | - |
| 1777600203 | 5.56° C | 79% | 1035.6 hPa | 0 mm | - | 0 W/m² | - |
| 1777599603 | 5.56° C | 79% | 1035.9 hPa | 0 mm | - | 0 W/m² | - |
| 1777599004 | 5° C | 80% | 1035.6 hPa | 0 mm | - | 0 W/m² | - |
| 1777598404 | 5° C | 81% | 1035.9 hPa | 0 mm | - | 0 W/m² | - |
| 1777597803 | 5° C | 81% | 1036 hPa | 0 mm | - | 0 W/m² | - |
| 1777597203 | 5° C | 79% | 1035.8 hPa | 0 mm | - | 0 W/m² | - |
| 1777596603 | 4.44° C | 80% | 1036 hPa | 0 mm | - | 0 W/m² | - |
| 1777596003 | 4.44° C | 79% | 1035.8 hPa | 0 mm | - | 0 W/m² | - |
| 1777595404 | 4.44° C | 77% | 1035.8 hPa | 0 mm | - | 0 W/m² | - |
* Rain latest hour (hover to see other rain measurements)
** Current wind speed in m/s (hover to see current wind gust speed)